Location: Pisa
(43.7170°N, 10.3830°E)
Time: 23:38:33
(UTC+02:00)

ISS - Pass Details

Date: 18 May 2021
Orbit: 417 x 422 km, 51.6° (Epoch: 20 June)

Event Time Altitude Azimuth Distance (km) Brightness Sun altitude
Rises 01:17:49 0° 300° (WNW) 2,370 0.4 -26.7°
Reaches altitude 10° 01:20:11 10° 315° (NW) 1,506 -0.4 -26.7°
Maximum altitude 01:23:01 24° 12° (NNE) 909 -1.4 -26.7°
Enters shadow 01:23:13 24° 18° (NNE) 913 -1.4 -26.7°
